#timestamp,LO_Frequency,Hit,StdDev 
1513735215.2,286046996.3,N
1513735235.9,286046994.4,N
1513735255.7,286046992.3,N
1513735275.5,286046991.1,N
1513735295.4,286046987.8,Y
1513735315.2,286046991.6,P
1513735335.0,286046985.6,P
1513735336.0,286046985.6,P
1513735355.8,286046981.6,Y
1513735375.6,286046990.0,P
1513735395.5,286046984.4,P
1513735415.3,286046982.5,P
1513735435.1,286046977.3,Y
1513735455.9,286046987.1,P
1513735475.7,286046984.8,P
1513735495.5,286046979.0,P
1513735515.4,286046979.7,Y
1513735535.2,286046993.8,P
1513735555.0,286046992.7,N
1513735555.9,286046992.7,N
1513735575.8,286046991.0,N
1513735595.6,286046991.3,N
1513735615.4,286046992.3,N
1513735635.2,286046994.1,N
1513735655.1,286046990.1,Y
1513735656.0,286046990.1,P
1513735675.8,286047002.7,P
1513735695.7,286046998.2,N
1513735715.5,286046998.8,N
1513735735.3,286046996.7,N
1513735755.1,286046998.6,N
1513735775.9,286047000.9,N
1513735795.7,286046999.6,N
1513735815.5,286046999.5,N
1513735835.4,286046995.1,N
1513735855.2,286046996.3,N
1513735875.0,286046996.9,N
1513735875.9,286046996.9,N
1513735895.8,286047001.1,N
1513735915.6,286047000.1,N
1513735935.4,286046999.8,N
1513735955.3,286047003.7,N
1513735975.1,286047002.3,N
1513735976.0,286047002.3,N
1513735995.8,286047003.9,N
1513736015.7,286047004.8,N
1513736035.5,286047010.4,N
1513736055.3,286047010.6,N
1513736075.1,286047010.2,N
1513736095.9,286047008.3,N
1513736115.7,286047010.5,N
1513736135.5,286047009.7,N
1513736155.4,286047014.4,N
1513736175.2,286047018.3,Y
1513736195.0,286047013.2,P
1513736195.9,286047013.2,N
1513736215.8,286047015.0,N
1513736235.6,286047018.6,Y
1513736255.4,286047010.5,P
1513736275.3,286047016.1,P
1513736295.1,286047022.0,P
1513736315.8,286047021.3,Y
1513736335.7,286047004.4,P
1513736355.5,286047002.1,N
1513736375.3,286046998.7,N
1513736395.2,286046997.8,N
1513736415.9,286046995.8,N
1513736435.7,286046992.1,N
1513736455.6,286046990.5,N
1513736475.4,286046988.6,N
1513736495.2,286046988.7,N
1513736515.1,286046992.3,N
1513736516.0,286046992.3,N
1513736535.8,286046996.2,N
1513736555.6,286046996.8,N
1513736575.4,286046995.8,N
1513736595.3,286046997.0,N
1513736615.1,286046993.5,N
1513736635.8,286046995.0,N
1513736655.7,286046993.4,N
1513736675.5,286046993.5,N
1513736695.3,286046999.6,N
1513736715.2,286047000.5,N
1513736735.9,286046996.6,N
1513736755.7,286046993.4,N
1513736775.6,286046994.3,N
1513736795.4,286046990.4,N
1513736815.2,286046988.9,N
1513736835.0,286046989.0,N
1513736836.0,286046989.0,N
1513736855.8,286046993.2,N
1513736875.6,286046989.9,N
1513736895.5,286046982.4,Y
1513736915.3,286046987.0,P
1513736935.1,286046988.2,P
1513736955.8,286046989.2,P
1513736975.7,286046987.4,Y
1513736995.5,286046995.6,P
1513737015.3,286046992.4,N
1513737035.2,286046985.8,P
1513737055.0,286046984.4,Y
1513737055.9,286046984.4,P
1513737075.8,286046994.7,N
1513737095.6,286046995.8,N
1513737115.4,286046994.4,N
1513737135.2,286046991.0,N
1513737155.1,286046989.2,N
1513737156.0,286046989.2,N
1513737175.8,286046982.1,Y
1513737195.6,286046994.4,P
1513737215.5,286046994.0,P
1513737235.3,286046996.0,N
1513737255.1,286046996.4,N
1513737275.9,286046997.9,N
1513737295.7,286046993.7,N
1513737315.5,286046990.3,Y
1513737335.4,286046994.4,P
1513737355.2,286046994.3,P
1513737375.0,286046993.4,P
1513737375.9,286046993.4,Y
1513737395.8,286047005.3,P
1513737415.6,286047006.0,N
1513737435.4,286047003.0,N
1513737455.3,286047004.3,N
1513737475.1,286047000.6,N
1513737476.0,286047000.6,N
1513737495.8,286047000.5,N
1513737515.7,286046998.2,N
1513737535.5,286047000.9,N
1513737555.3,286046999.0,N
1513737575.2,286046997.6,N
1513737595.9,286046996.8,N
1513737615.7,286046998.8,N
1513737635.6,286047002.2,N
1513737655.4,286046998.1,N
1513737675.2,286047001.2,N
1513737695.0,286046999.3,N
1513737695.9,286046999.3,N
1513737715.8,286046999.1,N
1513737735.6,286046998.8,N
1513737755.4,286047000.3,N
1513737775.3,286046998.2,N
1513737795.1,286046997.4,N
1513737815.8,286046994.9,N
1513737835.7,286046999.6,N
1513737855.5,286046996.2,N
1513737875.3,286046998.9,N
1513737895.2,286047002.0,N
1513737915.9,286047001.3,N
1513737935.7,286047002.5,N
1513737955.6,286046999.8,N
1513737975.4,286047002.8,N
1513737995.2,286047000.0,N
1513738015.0,286047002.0,N
1513738015.9,286047002.0,N
1513738035.8,286047001.3,N
1513738055.6,286047005.7,N
1513738075.4,286047004.2,N
1513738095.3,286047004.8,N
1513738115.1,286047005.4,N
1513738135.8,286047004.3,N
1513738155.7,286047002.3,N
1513738175.5,286047001.2,N
1513738195.3,286046999.9,N
1513738215.2,286047000.8,N
1513738235.9,286046997.0,N
1513738255.7,286046998.7,N
1513738275.6,286046999.0,N
1513738295.4,286046997.7,N
1513738315.2,286046997.4,N
1513738335.0,286046997.5,N
1513738335.9,286046997.5,N
1513738355.8,286046995.4,N
1513738375.6,286046993.0,N
1513738395.4,286046992.4,N
1513738415.3,286046994.0,N
1513738435.1,286046994.2,N
1513738455.8,286047001.1,N
1513738475.7,286047001.4,N
1513738495.5,286047001.7,N
1513738515.3,286046999.8,N
1513738535.2,286047002.6,N
1513738555.9,286047001.6,N
1513738575.7,286047004.3,N
1513738595.6,286047003.5,N
1513738615.4,286047001.4,N
1513738635.2,286047004.2,N
1513738655.0,286047002.1,N
1513738655.9,286047002.1,N
1513738675.8,286047001.4,N
1513738695.6,286047004.1,N
1513738715.4,286047007.1,N
1513738735.3,286047003.8,N
1513738755.1,286047006.4,N
1513738775.8,286047006.2,N
1513738795.7,286047003.5,N
